BAW337 LFMN-EGLL

Flight info

Callsign BAW337
Flight time N/A
Altitude 34000
Route BADOD DCT NEDRU DCT LTP DCT BULOL DCT IDAVO DCT BAGBI DCT SIZZA DCT LAULY DCT BRY DCT CLM DCT KOPOR DCT ABNUR DCT DIMAL DCT ALESO
Aircraft A21N/M-SDE2E3FGHIRWXY/LB1

Departure

Time N/A
Airport Nice-Côte d'Azur Airport (LFMN)

Arrival

Time 2026-05-04 21:27
Airport London Heathrow Airport (EGLL)
Time Latitude Longitude Altitude Speed Heading
2026-05-04 20:19 45.73650 5.28577 33977 ft 472 kts 332°
2026-05-04 20:19 45.79666 5.24826 33979 ft 472 kts 332°
2026-05-04 20:20 45.85638 5.21096 33976 ft 471 kts 332°
2026-05-04 20:20 45.91646 5.17334 33979 ft 471 kts 331°
2026-05-04 20:21 45.97648 5.13566 33976 ft 471 kts 331°
2026-05-04 20:21 46.06646 5.07898 33978 ft 470 kts 331°
2026-05-04 20:22 46.12595 5.04115 33976 ft 471 kts 331°
2026-05-04 20:22 46.18584 5.00295 33975 ft 471 kts 331°
2026-05-04 20:23 46.24576 4.96467 33973 ft 471 kts 331°
2026-05-04 20:23 46.30575 4.92626 33973 ft 472 kts 331°
2026-05-04 20:24 46.36580 4.88771 33975 ft 472 kts 331°
2026-05-04 20:24 46.42543 4.84935 33979 ft 472 kts 331°
2026-05-04 20:25 46.48536 4.81070 33983 ft 472 kts 330°
2026-05-04 20:25 46.54538 4.77190 33974 ft 472 kts 330°
2026-05-04 20:26 46.60528 4.73307 33972 ft 471 kts 330°
2026-05-04 20:26 46.66472 4.69446 33969 ft 471 kts 330°
2026-05-04 20:27 46.72452 4.65550 33970 ft 470 kts 330°
2026-05-04 20:27 46.78423 4.61652 33965 ft 470 kts 330°
2026-05-04 20:28 46.84390 4.57753 33963 ft 469 kts 331°
2026-05-04 20:28 46.90313 4.53906 33961 ft 469 kts 331°
2026-05-04 20:29 46.96274 4.50025 33958 ft 469 kts 331°
2026-05-04 20:29 47.02229 4.46134 33954 ft 468 kts 331°
2026-05-04 20:30 47.08173 4.42241 33946 ft 468 kts 331°
2026-05-04 20:30 47.14078 4.38364 33953 ft 468 kts 331°
2026-05-04 20:31 47.20026 4.34451 33945 ft 468 kts 331°
2026-05-04 20:31 47.25967 4.30533 33945 ft 468 kts 331°
2026-05-04 20:32 47.31909 4.26604 33955 ft 468 kts 331°
2026-05-04 20:32 47.37799 4.22700 33957 ft 467 kts 331°
2026-05-04 20:33 47.43726 4.18760 33953 ft 467 kts 331°
2026-05-04 20:33 47.49655 4.14811 33953 ft 467 kts 332°
2026-05-04 20:34 47.55571 4.10861 33956 ft 466 kts 332°
2026-05-04 20:34 47.61434 4.06946 33952 ft 466 kts 332°
2026-05-04 20:35 47.67332 4.03002 33950 ft 465 kts 331°
2026-05-04 20:35 47.73228 3.99047 33948 ft 464 kts 331°
2026-05-04 20:36 47.79108 3.95093 33940 ft 463 kts 331°
2026-05-04 20:36 47.84936 3.91162 33941 ft 463 kts 331°
2026-05-04 20:37 47.90790 3.87204 33936 ft 462 kts 331°
2026-05-04 20:37 47.96644 3.83237 33938 ft 461 kts 331°
2026-05-04 20:38 48.02485 3.79267 33935 ft 461 kts 331°
2026-05-04 20:38 48.08315 3.75295 33931 ft 461 kts 330°
2026-05-04 20:39 48.13980 3.71041 33928 ft 455 kts 322°
2026-05-04 20:39 48.18856 3.65167 33929 ft 446 kts 309°
2026-05-04 20:40 48.23043 3.58356 33923 ft 445 kts 307°
2026-05-04 20:40 48.27237 3.51524 33922 ft 445 kts 307°
2026-05-04 20:41 48.31408 3.44720 33925 ft 446 kts 307°
2026-05-04 20:41 48.35605 3.37853 33933 ft 447 kts 307°
2026-05-04 20:42 48.40060 3.31274 33931 ft 454 kts 317°
2026-05-04 20:42 48.45539 3.26373 33933 ft 465 kts 332°
2026-05-04 20:43 48.51477 3.22622 33937 ft 466 kts 332°
2026-05-04 20:43 48.57456 3.18806 33942 ft 467 kts 332°
2026-05-04 20:44 48.63441 3.14967 33948 ft 468 kts 332°
2026-05-04 20:44 48.69434 3.11113 33953 ft 468 kts 332°
2026-05-04 20:45 48.75435 3.07243 33952 ft 469 kts 332°
2026-05-04 20:45 48.81392 3.03391 33956 ft 469 kts 332°
2026-05-04 20:46 48.87194 2.99025 33966 ft 464 kts 325°
2026-05-04 20:46 48.92571 2.94316 33975 ft 463 kts 324°
2026-05-04 20:47 48.98159 2.89426 33975 ft 463 kts 324°
2026-05-04 20:47 49.03693 2.84572 33978 ft 462 kts 324°
2026-05-04 20:48 49.09251 2.79681 33968 ft 461 kts 324°
2026-05-04 20:48 49.14795 2.74789 33965 ft 460 kts 324°
2026-05-04 20:49 49.20323 2.69899 33955 ft 458 kts 324°
2026-05-04 20:49 49.25795 2.65046 33949 ft 458 kts 324°
2026-05-04 20:50 49.31298 2.60152 33939 ft 457 kts 324°
2026-05-04 20:50 49.36787 2.55257 33933 ft 456 kts 324°
2026-05-04 20:51 49.42236 2.50384 33953 ft 456 kts 324°
2026-05-04 20:51 49.47710 2.45478 33957 ft 455 kts 325°
2026-05-04 20:52 49.53180 2.40585 33952 ft 455 kts 326°
2026-05-04 20:52 49.58740 2.35902 33960 ft 455 kts 327°
2026-05-04 20:53 49.64304 2.31236 33952 ft 455 kts 327°
2026-05-04 20:53 49.69816 2.26566 33957 ft 455 kts 327°
2026-05-04 20:54 49.75352 2.21853 33961 ft 454 kts 327°
2026-05-04 20:54 49.80887 2.17127 33962 ft 454 kts 327°
2026-05-04 20:55 49.86420 2.12389 33968 ft 454 kts 327°
2026-05-04 20:55 49.91945 2.07647 33964 ft 454 kts 327°
2026-05-04 20:56 49.97439 2.02920 33969 ft 454 kts 327°
2026-05-04 20:56 50.02964 1.98152 33975 ft 454 kts 327°
2026-05-04 20:57 50.08491 1.93371 33978 ft 455 kts 327°
2026-05-04 20:57 50.13998 1.88533 33976 ft 454 kts 324°
2026-05-04 20:58 50.19044 1.82807 33978 ft 450 kts 315°
2026-05-04 20:58 50.23565 1.76106 33988 ft 448 kts 312°
2026-05-04 20:59 50.27577 1.69970 33993 ft 449 kts 312°
2026-05-04 20:59 50.32057 1.63116 33631 ft 451 kts 312°
2026-05-04 21:00 50.34295 1.59686 33343 ft 451 kts 312°
2026-05-04 21:00 50.36545 1.56232 32694 ft 454 kts 312°
2026-05-04 21:00 50.38807 1.52752 31767 ft 458 kts 312°
2026-05-04 21:00 50.41042 1.49311 31133 ft 454 kts 312°
2026-05-04 21:01 50.43285 1.45857 30774 ft 451 kts 312°
2026-05-04 21:01 50.45522 1.42405 30270 ft 450 kts 312°
2026-05-04 21:01 50.47738 1.38981 29711 ft 445 kts 313°
2026-05-04 21:01 50.49922 1.35597 29214 ft 436 kts 312°
2026-05-04 21:02 50.51998 1.32184 28714 ft 427 kts 310°
2026-05-04 21:02 50.53985 1.28766 28228 ft 419 kts 309°
2026-05-04 21:02 50.55926 1.25406 27741 ft 412 kts 310°
2026-05-04 21:02 50.57816 1.22148 27283 ft 405 kts 310°
2026-05-04 21:03 50.59753 1.18955 26817 ft 403 kts 312°
2026-05-04 21:03 50.61734 1.15847 26354 ft 403 kts 313°
2026-05-04 21:03 50.63726 1.12749 25895 ft 402 kts 313°
2026-05-04 21:03 50.65705 1.09659 25442 ft 399 kts 313°
2026-05-04 21:04 50.67658 1.06589 24987 ft 395 kts 313°
2026-05-04 21:04 50.69596 1.03526 24541 ft 393 kts 313°
2026-05-04 21:04 50.71522 1.00471 24102 ft 391 kts 313°
2026-05-04 21:04 50.73436 0.97427 23647 ft 389 kts 313°
2026-05-04 21:05 50.75309 0.94446 23154 ft 385 kts 313°
2026-05-04 21:05 50.77187 0.91455 22715 ft 383 kts 313°
2026-05-04 21:05 50.79061 0.88468 22267 ft 381 kts 313°
2026-05-04 21:05 50.80922 0.85498 21833 ft 379 kts 313°
2026-05-04 21:06 50.82764 0.82551 21382 ft 376 kts 313°
2026-05-04 21:06 50.84598 0.79614 20946 ft 374 kts 313°
2026-05-04 21:06 50.88504 0.73349 20005 ft 368 kts 313°
2026-05-04 21:07 50.90305 0.70453 19562 ft 366 kts 313°
2026-05-04 21:07 50.92064 0.67624 19148 ft 364 kts 314°
2026-05-04 21:07 50.93854 0.64740 18712 ft 361 kts 314°
2026-05-04 21:07 50.95585 0.61949 18290 ft 359 kts 314°
2026-05-04 21:08 50.97372 0.59064 18054 ft 377 kts 314°
2026-05-04 21:08 50.99240 0.56048 17991 ft 387 kts 314°
2026-05-04 21:08 51.01124 0.53003 17768 ft 386 kts 314°
2026-05-04 21:08 51.03009 0.49950 17128 ft 389 kts 314°
2026-05-04 21:09 51.04911 0.46863 16262 ft 393 kts 314°
2026-05-04 21:09 51.06803 0.43789 15904 ft 382 kts 314°
2026-05-04 21:09 51.08648 0.40878 15732 ft 365 kts 316°
2026-05-04 21:09 51.10427 0.38184 15574 ft 349 kts 317°
2026-05-04 21:10 51.12144 0.35605 15386 ft 330 kts 317°
2026-05-04 21:10 51.13759 0.33170 15214 ft 311 kts 316°
2026-05-04 21:10 51.15279 0.30862 15044 ft 293 kts 316°
2026-05-04 21:10 51.16741 0.28634 14541 ft 290 kts 316°
2026-05-04 21:11 51.18187 0.26421 14071 ft 284 kts 316°
2026-05-04 21:11 51.19601 0.24252 13512 ft 280 kts 317°
2026-05-04 21:11 51.21001 0.22105 12921 ft 277 kts 317°
2026-05-04 21:11 51.22380 0.19990 12352 ft 274 kts 316°
2026-05-04 21:12 51.23729 0.17921 11807 ft 271 kts 316°
2026-05-04 21:12 51.25094 0.15824 11255 ft 268 kts 316°
2026-05-04 21:12 51.26413 0.13797 10715 ft 265 kts 316°
2026-05-04 21:12 51.27731 0.11767 10185 ft 262 kts 316°
2026-05-04 21:13 51.29035 0.09758 9619 ft 260 kts 316°
2026-05-04 21:13 51.30325 0.07768 9053 ft 256 kts 316°
2026-05-04 21:13 51.31600 0.05798 8510 ft 253 kts 316°
2026-05-04 21:13 51.32737 0.03685 7949 ft 250 kts 298°
2026-05-04 21:14 51.33244 0.01066 7399 ft 247 kts 274°
2026-05-04 21:14 51.33365 -0.01614 7108 ft 236 kts 274°
2026-05-04 21:14 51.33495 -0.04241 7045 ft 242 kts 275°
2026-05-04 21:14 51.33635 -0.06904 7062 ft 238 kts 275°
2026-05-04 21:15 51.33778 -0.09553 7030 ft 243 kts 275°
2026-05-04 21:15 51.33924 -0.12233 7044 ft 241 kts 275°
2026-05-04 21:15 51.34068 -0.14889 7046 ft 240 kts 275°
2026-05-04 21:15 51.34211 -0.17556 7046 ft 240 kts 275°
2026-05-04 21:16 51.34352 -0.20218 7044 ft 240 kts 275°
2026-05-04 21:16 51.34492 -0.22883 7038 ft 240 kts 275°
2026-05-04 21:16 51.34631 -0.25544 7040 ft 241 kts 275°
2026-05-04 21:16 51.34770 -0.28211 7042 ft 241 kts 275°
2026-05-04 21:17 51.34906 -0.30845 7044 ft 241 kts 275°
2026-05-04 21:17 51.35044 -0.33508 7044 ft 241 kts 275°
2026-05-04 21:17 51.35181 -0.36181 7043 ft 240 kts 275°
2026-05-04 21:17 51.35317 -0.38843 7045 ft 241 kts 275°
2026-05-04 21:18 51.35452 -0.41512 7047 ft 240 kts 275°
2026-05-04 21:18 51.35587 -0.44186 7047 ft 241 kts 275°
2026-05-04 21:18 51.35721 -0.46848 7046 ft 241 kts 274°
2026-05-04 21:18 51.35854 -0.49514 7045 ft 240 kts 274°
2026-05-04 21:19 51.35986 -0.52181 7047 ft 241 kts 274°
2026-05-04 21:19 51.36118 -0.54847 7043 ft 240 kts 274°
2026-05-04 21:19 51.36250 -0.57516 7045 ft 241 kts 274°
2026-05-04 21:19 51.36380 -0.60153 7042 ft 241 kts 274°
2026-05-04 21:20 51.36510 -0.62819 7020 ft 241 kts 274°
2026-05-04 21:20 51.36640 -0.65489 7021 ft 241 kts 274°
2026-05-04 21:20 51.36773 -0.68167 6918 ft 241 kts 275°
2026-05-04 21:20 51.36912 -0.70853 6579 ft 243 kts 275°
2026-05-04 21:21 51.37055 -0.73542 6187 ft 242 kts 275°
2026-05-04 21:21 51.37441 -0.76117 5684 ft 239 kts 300°
2026-05-04 21:21 51.38565 -0.78034 5094 ft 239 kts 331°
2026-05-04 21:21 51.39980 -0.78817 4611 ft 236 kts 351°
2026-05-04 21:22 51.41579 -0.79048 4091 ft 235 kts 359°
2026-05-04 21:22 51.43199 -0.79070 3707 ft 227 kts
2026-05-04 21:22 51.44726 -0.78540 3210 ft 227 kts 31°
2026-05-04 21:22 51.45943 -0.77037 2990 ft 213 kts 46°
2026-05-04 21:23 51.46777 -0.75262 2976 ft 188 kts 61°
2026-05-04 21:23 51.47261 -0.73412 3009 ft 182 kts 72°
2026-05-04 21:23 51.47530 -0.71448 2950 ft 180 kts 81°
2026-05-04 21:23 51.47642 -0.69458 2726 ft 178 kts 86°
2026-05-04 21:24 51.47675 -0.67471 2478 ft 178 kts 88°
2026-05-04 21:24 51.47686 -0.65491 2235 ft 177 kts 88°
2026-05-04 21:24 51.47693 -0.63560 1998 ft 173 kts 88°
2026-05-04 21:24 51.47699 -0.61766 1773 ft 149 kts 88°
2026-05-04 21:25 51.47704 -0.60199 1569 ft 132 kts 87°
2026-05-04 21:25 51.47712 -0.58706 1395 ft 137 kts 87°
2026-05-04 21:25 51.47716 -0.57198 1215 ft 134 kts 87°
2026-05-04 21:25 51.47722 -0.55704 1031 ft 135 kts 87°
2026-05-04 21:26 51.47728 -0.54190 836 ft 135 kts 87°
2026-05-04 21:26 51.47733 -0.52690 646 ft 135 kts 87°
2026-05-04 21:26 51.47738 -0.51197 457 ft 133 kts 86°
2026-05-04 21:26 51.47744 -0.49705 277 ft 134 kts 87°
2026-05-04 21:27 51.47750 -0.48203 112 ft 135 kts 86°
2026-05-04 21:27 51.47755 -0.46863 92 ft 88 kts 90°
2026-05-04 21:27 51.47756 -0.46245 91 ft 19 kts 96°
2026-05-04 21:27 51.47666 -0.46106 91 ft 23 kts 145°
2026-05-04 21:28 51.47602 -0.46056 87 ft 0 kts 193°
2026-05-04 21:28 51.47601 -0.46056 87 ft 1 kts 195°
2026-05-04 21:28 51.47594 -0.46116 87 ft 14 kts 268°
2026-05-04 21:29 51.47593 -0.46336 89 ft 23 kts 271°
2026-05-04 21:29 51.47592 -0.46611 87 ft 26 kts 269°
2026-05-04 21:29 51.47583 -0.46911 91 ft 28 kts 267°
2026-05-04 21:29 51.47581 -0.47233 91 ft 30 kts 269°
2026-05-04 21:30 51.47581 -0.47574 88 ft 31 kts 270°
2026-05-04 21:30 51.47579 -0.47913 90 ft 29 kts 270°
2026-05-04 21:30 51.47578 -0.48225 90 ft 27 kts 270°
2026-05-04 21:30 51.47575 -0.48443 90 ft 9 kts 256°
2026-05-04 21:31 51.47457 -0.48478 87 ft 13 kts 179°
2026-05-04 21:31 51.47370 -0.48479 87 ft 7 kts 189°
2026-05-04 21:31 51.47360 -0.48549 87 ft 7 kts 270°
2026-05-04 21:32 51.47360 -0.48586 87 ft 2 kts 270°
2026-05-04 21:32 51.47360 -0.48589 87 ft 0 kts 270°